EW8735 Weather Reports


time (UTC)temp
C
wind
direction
speed
KPH
gust
KPH
rain 1hr
cm
rain 24hr
cm
rain mn
cm
humidity
%
barometer
mb
20260507070104 13 218 0.0 0.0 0.00 0.00 0.00 57 1012.1
20260507064556 13 219 0.0 0.0 0.00 0.00 0.00 57 1012.1
20260507063051 13 218 0.0 0.0 0.00 0.00 0.00 56 1012.0
20260507061551 13 218 0.0 0.0 0.00 0.00 0.00 56 1011.9
20260507060051 14 218 0.0 0.0 0.00 0.00 0.00 55 1011.9
20260507054609 15 218 0.0 0.0 0.00 0.00 0.00 51 1011.8
20260507053102 16 219 0.0 0.0 0.00 0.00 0.00 47 1011.8
20260507051555 17 219 0.0 0.0 0.00 0.00 0.00 43 1011.8
20260507050054 17 220 0.0 0.0 0.00 0.00 0.00 43 1011.6
20260507044555 18 214 0.0 0.0 0.00 0.00 0.00 42 1011.8
20260507043049 17 214 0.0 0.0 0.00 0.00 0.00 43 1011.8
20260507041559 18 214 0.0 0.0 0.00 0.00 0.00 42 1011.8
20260507040049 20 218 0.0 0.0 0.00 0.00 0.00 40 1011.5
20260507034548 20 224 0.0 0.0 0.00 0.00 0.00 38 1011.2
20260507033047 20 239 0.0 0.0 0.00 0.00 0.00 36 1011.1
20260507031546 21 241 0.0 0.0 0.00 0.00 0.00 36 1010.9
20260507030046 21 254 0.0 0.0 0.00 0.00 0.00 35 1010.6
20260507024551 21 228 0.0 0.0 0.00 0.00 0.00 35 1010.6
20260507023045 21 261 0.0 0.0 0.00 0.00 0.00 37 1010.5
20260507021557 21 262 0.0 0.0 0.00 0.00 0.00 37 1010.5
20260507020105 21 268 0.0 0.0 0.00 0.00 0.00 35 1010.2
20260507014606 22 287 0.0 0.0 0.00 0.00 0.00 37 1010.1
20260507013047 23 299 0.0 0.0 0.00 0.00 0.00 36 1010.0
20260507011553 23 311 0.0 0.0 0.00 0.00 0.00 36 1009.9
20260507010045 23 273 0.0 0.0 0.00 0.00 0.00 36 1009.8
20260507004541 23 273 0.0 0.0 0.00 0.00 0.00 35 1009.6
20260507003041 24 264 0.0 0.0 0.00 0.00 0.00 31 1009.4
20260507001556 25 254 0.0 0.0 0.00 0.00 0.00 32 1009.3
20260507000053 25 265 0.0 0.0 0.00 0.00 0.00 33 1009.4
20260506234558 26 261 0.0 0.0 0.00 0.00 0.00 33 1009.3
20260506233046 25 263 0.0 0.0 0.00 0.00 0.00 34 1009.2
20260506231539 25 261 0.0 0.0 0.00 0.00 0.00 31 1009.2
20260506230038 26 261 0.0 0.0 0.00 0.00 0.00 33 1009.2
20260506224538 26 266 0.0 0.0 0.00 0.00 0.00 33 1009.3
20260506223038 26 270 0.0 0.0 0.00 0.00 0.00 31 1009.3
20260506221550 26 261 0.0 0.0 0.00 0.00 0.00 34 1009.5
20260506220043 27 299 0.0 0.0 0.00 0.00 0.00 40 1009.9
20260506214536 27 303 0.0 0.0 0.00 0.00 0.00 40 1009.8
20260506213043 27 299 0.0 0.0 0.00 0.00 0.00 40 1009.8
20260506211543 27 270 0.0 0.0 0.00 0.00 0.00 37 1009.7
20260506210043 27 281 0.0 0.0 0.00 0.00 0.00 34 1009.7
20260506204533 27 256 0.0 0.0 0.00 0.00 0.00 31 1009.6
20260506203032 26 248 0.0 0.0 0.00 0.00 0.00 33 1009.8
20260506201534 26 258 0.0 0.0 0.00 0.00 0.00 37 1009.8
20260506200030 26 266 0.0 0.0 0.00 0.00 0.00 36 1009.9
20260506194522 25 282 0.0 0.0 0.00 0.00 0.00 40 1010.2
20260506193032 24 292 0.0 0.0 0.00 0.00 0.00 44 1010.5
20260506191516 23 4 0.0 0.0 0.00 0.00 0.00 47 1010.8
20260506190014 23 4 0.0 0.0 0.00 0.00 0.00 45 1010.9
20260506184511 23 4 0.0 0.0 0.00 0.00 0.00 47 1011.2
20260506183010 22 4 0.0 0.0 0.00 0.00 0.00 46 1011.4
20260506181523 22 8 0.0 0.0 0.00 0.00 0.00 45 1011.6
20260506180008 22 9 0.0 0.0 0.00 0.00 0.00 47 1011.9
20260506174504 22 9 0.0 0.0 0.00 0.00 0.00 48 1011.9
20260506173004 21 9 0.0 0.0 0.00 0.00 0.00 52 1011.9
20260506171609 21 14 0.0 0.0 0.00 0.00 0.00 49 1011.9
20260506170112 21 359 0.0 0.0 0.00 0.00 0.00 50 1011.9
20260506164554 20 350 0.0 0.0 0.00 0.00 0.00 53 1011.8
20260506163057 20 341 0.0 0.0 0.00 0.00 0.00 52 1012.0
20260506161550 20 341 0.0 0.0 0.00 0.00 0.00 53 1011.9
20260506160048 19 341 0.0 0.0 0.00 0.00 0.00 54 1011.9
20260506154605 19 359 0.0 0.0 0.00 0.00 0.00 56 1012.2
20260506153041 18 44 0.0 0.0 0.00 0.00 0.00 57 1012.1
20260506151538 17 54 0.0 0.0 0.00 0.00 0.00 59 1012.1
20260506150036 17 54 0.0 0.0 0.00 0.00 0.00 61 1012.1
20260506144536 16 49 0.0 0.0 0.00 0.00 0.00 63 1012.0
20260506143028 15 354 0.0 0.0 0.00 0.00 0.00 69 1011.9
20260506141523 13 14 0.0 0.0 0.00 0.00 0.00 74 1011.8
20260506140023 12 56 0.0 0.0 0.00 0.00 0.00 80 1011.5
20260506134520 11 54 0.0 0.0 0.00 0.00 0.00 83 1011.4
20260506133018 10 56 0.0 0.0 0.00 0.00 0.00 84 1011.2
20260506131517 10 60 0.0 0.0 0.00 0.00 0.00 84 1011.2
20260506130017 10 59 0.0 0.0 0.00 0.00 0.00 83 1011.1
20260506124514 10 59 0.0 0.0 0.00 0.00 0.00 83 1010.9
20260506123012 10 16 0.0 0.0 0.00 0.00 0.00 82 1010.7
20260506121509 10 16 0.0 0.0 0.00 0.00 0.00 81 1010.5
20260506120008 10 16 0.0 0.0 0.00 0.00 0.00 81 1010.3
20260506114506 10 16 0.0 0.0 0.00 0.00 0.00 79 1010.0
20260506113005 10 16 0.0 0.0 0.00 0.00 0.00 81 1010.0
20260506111503 9 16 0.0 0.0 0.00 0.00 0.00 82 1009.9
20260506110100 11 15 0.0 0.0 0.00 0.00 0.00 76 1009.8
20260506104630 11 16 0.0 0.0 0.00 0.00 0.00 77 1009.8
20260506103100 11 16 0.0 0.0 0.00 0.00 0.00 77 1009.7
20260506101553 12 16 0.0 0.0 0.00 0.00 0.00 77 1009.5
20260506100052 12 16 0.0 0.0 0.00 0.00 0.00 76 1009.4
20260506094551 12 16 0.0 0.0 0.00 0.00 0.00 76 1009.3
20260506093051 12 16 0.0 0.0 0.00 0.00 0.00 79 1009.3
20260506091549 12 16 0.0 0.0 0.00 0.00 0.00 80 1009.3
20260506090049 11 16 0.0 0.0 0.00 0.00 0.00 82 1009.3
20260506084545 12 16 0.0 0.0 0.00 0.00 0.00 78 1009.3
20260506083047 13 16 0.0 0.0 0.00 0.00 0.00 74 1009.3
20260506081538 14 16 0.0 0.0 0.00 0.00 0.00 71 1009.0
20260506073030 13 16 0.0 0.0 0.00 0.00 0.00 73 1008.8
20260506071527 13 16 0.0 0.0 0.00 0.00 0.00 73 1008.7